Regional Weather Roundup
Issued by NWS

Home | Current Version | Previous Version | Text Only | Print | Product List | Glossary Off
Versions: 1 2 3 4 5 6 7 8 9 10 11 12 13 14 15 16 17 18 19 20 21 22 23 24 25 26 27 28 29 30 31 32 33 34 35 36 37 38 39 40 41 42 43 44 45 46 47 48 49 50

947
ASUS43 KMKX 241220
RWRWI

WISCONSIN REGIONAL WEATHER ROUNDUP
NATIONAL WEATHER SERVICE MILWAUKEE/SULLIVAN WI
700 AM CDT TUE APR 24 2018

NOTE: "FAIR" INDICATES FEW OR NO CLOUDS BELOW 12,000 FEET WITH NO
SIGNIFICANT WEATHER AND/OR OBSTRUCTIONS TO VISIBILITY.

WIZ001-002-006>008-014>016-023>028-241300-
NORTHWEST WISCONSIN

CITY           SKY/WX    TMP DP  RH WIND       PRES   REMARKS
SUPERIOR ARPT  FAIR      41  31  67 NE6       30.19R
6HR MIN TEMP:  32; 6HR MAX TEMP:  42;

ASHLAND        FAIR      40  31  70 NE9       30.18R WCI  34
6HR MIN TEMP:  36; 6HR MAX TEMP:  48;

HAYWARD        MOCLDY    34  29  82 N5        30.13S WCI  30
6HR MIN TEMP:  30; 6HR MAX TEMP:  35;

SIREN          FAIR      34  31  88 CALM      30.15R
6HR MIN TEMP:  32; 6HR MAX TEMP:  38;

CUMBERLAND     FAIR      32  28  86 CALM      30.13S
RICE LAKE      FAIR      32  32  99 N3        30.15R
6HR MIN TEMP:  32; 6HR MAX TEMP:  36;

CHETEK         FAIR      33  32  96 CALM      30.13R
6HR MIN TEMP:  32; 6HR MAX TEMP:  37;

LADYSMITH      FAIR      35  32  87 CALM      30.15R
6HR MIN TEMP:  32; 6HR MAX TEMP:  37;

EAU CLAIRE     FAIR      36  33  89 CALM      30.12R
6HR MIN TEMP:  33; 6HR MAX TEMP:  44;

MENOMONIE      FAIR      39  35  85 W3        30.13R
6HR MIN TEMP:  37; 6HR MAX TEMP:  46;

NEW RICHMOND   FAIR      37  32  84 CALM      30.13S
6HR MIN TEMP:  35; 6HR MAX TEMP:  41;

OSCEOLA        FAIR      37  33  89 CALM      30.16R
6HR MIN TEMP:  34; 6HR MAX TEMP:  40;

$$

WIZ003>005-009-010-017-018-241300-
NORTH CENTRAL WISCONSIN

CITY           SKY/WX    TMP DP  RH WIND       PRES   REMARKS
MANITOWISH WTR MOCLDY    28  27  93 CALM      30.13R
6HR MIN TEMP:  27; 6HR MAX TEMP:  33;

ARBOR VITAE    FAIR      33  28  82 CALM      30.12S
6HR MIN TEMP:  32; 6HR MAX TEMP:  37;

WOODRUFF       FAIR      33  28  82 CALM      30.12S
6HR MIN TEMP:  32; 6HR MAX TEMP:  37;

RHINELANDER    FAIR      33  28  81 CALM      30.12R
6HR MIN TEMP:  30; 6HR MAX TEMP:  38;

EAGLE RIVER    FAIR      31  26  81 CALM      30.11S
6HR MIN TEMP:  28; 6HR MAX TEMP:  32;

LAND O LAKES   FAIR      32  26  80 CALM      30.14R
6HR MIN TEMP:  27; 6HR MAX TEMP:  31;

PHILLIPS       FAIR      32  30  92 CALM      30.12S
6HR MIN TEMP:  28; 6HR MAX TEMP:  33;

TOMAHAWK       FAIR      29  25  86 CALM      30.13S
6HR MIN TEMP:  26; 6HR MAX TEMP:  31;

MEDFORD        FAIR      34  30  86 CALM      30.11S
6HR MIN TEMP:  31; 6HR MAX TEMP:  37;

MERRILL        FAIR      31  28  89 CALM      30.13R
6HR MIN TEMP:  28; 6HR MAX TEMP:  32;

$$

WIZ029-030-035-036-043>047-241300-
CENTRAL WISCONSIN

CITY           SKY/WX    TMP DP  RH WIND       PRES   REMARKS
WAUSAU         FAIR      37  30  75 N3        30.11R
6HR MIN TEMP:  33; 6HR MAX TEMP:  40;

MOSINEE        PTCLDY    37  30  75 N3        30.13R
MARSHFIELD     FAIR      39  31  72 N3        30.10S
6HR MIN TEMP:  36; 6HR MAX TEMP:  48;

STEVENS POINT  FAIR      30  27  86 CALM      30.13R
6HR MIN TEMP:  28; 6HR MAX TEMP:  33;

WAUPACA        FAIR      37  31  79 CALM      30.12S
6HR MIN TEMP:  33; 6HR MAX TEMP:  38;

WAUTOMA        FAIR      35  31  85 CALM      30.12S
6HR MIN TEMP:  29; 6HR MAX TEMP:  37;

WISC RAPIDS    FAIR      34  27  75 CALM      30.13R
6HR MIN TEMP:  30; 6HR MAX TEMP:  40;

CAMP DOUGLAS   NOT AVBL
$$

WIZ011>013-019>022-031-037>040-048>050-241300-
NORTHEAST WISCONSIN

CITY           SKY/WX    TMP DP  RH WIND       PRES   REMARKS
ANTIGO         FAIR      33  30  90 CALM      30.12R
6HR MIN TEMP:  31; 6HR MAX TEMP:  35;

SHAWANO        FAIR      35  31  87 CALM      30.11S
6HR MIN TEMP:  32; 6HR MAX TEMP:  37;

OCONTO         FAIR      30  29  96 W3        30.11R
6HR MIN TEMP:  28; 6HR MAX TEMP:  34;

STURGEON BAY   FAIR      42  32  67 CALM      30.12R
6HR MIN TEMP:  39; 6HR MAX TEMP:  44;

GREEN BAY      FAIR      36  33  89 W3        30.11R
6HR MIN TEMP:  35; 6HR MAX TEMP:  43;

MANITOWOC      FAIR      43  30  60 N3        30.10R
6HR MIN TEMP:  40; 6HR MAX TEMP:  46;

APPLETON       MOSUNNY   43  25  49 N5        30.09R
CLINTONVILLE   FAIR      36  27  70 CALM      30.11S
6HR MIN TEMP:  32; 6HR MAX TEMP:  37;

OSHKOSH        FAIR      41  35  79 CALM      30.10R
6HR MIN TEMP:  38; 6HR MAX TEMP:  46;

$$

WIZ032>034-041-042-053>061-241300-
SOUTHWEST WISCONSIN

CITY           SKY/WX    TMP DP  RH WIND       PRES   REMARKS
LA CROSSE      FAIR      41  35  79 CALM      30.12S
6HR MIN TEMP:  37; 6HR MAX TEMP:  48;

SPARTA         FAIR      30  27  88 CALM      30.13S
6HR MIN TEMP:  28; 6HR MAX TEMP:  35;

VIROQUA        FAIR      48  29  48 CALM      30.11S
6HR MIN TEMP:  42; 6HR MAX TEMP:  49;

BOSCOBEL       FAIR      34  32  92 CALM      30.13R
6HR MIN TEMP:  31; 6HR MAX TEMP:  40;

PRAIRIE DU CHI FAIR      36  31  79 CALM      30.12S
6HR MIN TEMP:  35; 6HR MAX TEMP:  43;

PLATTEVILLE    FAIR      42  33  71 N6        30.12R
6HR MIN TEMP:  38; 6HR MAX TEMP:  48;

$$

WIZ056-057-062-063-064-067-068-241300-
SOUTH CENTRAL WISCONSIN

CITY           SKY/WX    TMP DP  RH WIND       PRES   REMARKS
REEDSBURG      FAIR      37  33  87 W3        30.12S
6HR MIN TEMP:  32; 6HR MAX TEMP:  41;

BARABOO/DELLS  FAIR      34  30  85 CALM      30.12R
6HR MIN TEMP:  31; 6HR MAX TEMP:  40;

LONE ROCK      FAIR      33  31  92 CALM      30.13R
6HR MIN TEMP:  31; 6HR MAX TEMP:  39;

MINERAL POINT  FAIR      45  32  61 CALM      30.11R
MADISON        FAIR      39  32  76 CALM      30.10R
6HR MIN TEMP:  36; 6HR MAX TEMP:  45;

MIDDLETON      FAIR      38  32  81 CALM      30.10S
WATERTOWN      FAIR      44  34  66 CALM      30.09R
6HR MIN TEMP:  42; 6HR MAX TEMP:  45;

MONROE         FAIR      46  28  49 N5        30.09S
JANESVILLE     MOCLDY    46  36  66 CALM      30.09R
$$

WIZ051-052-058>065-066-070>072-241300-
SOUTHEAST WISCONSIN

CITY           SKY/WX    TMP DP  RH WIND       PRES   REMARKS
MILWAUKEE      CLOUDY    47  32  56 N7        30.09R
6HR MIN TEMP:  44; 6HR MAX TEMP:  50;

WAUKESHA       MOSUNNY   45  30  57 CALM      30.10R
MILWAUKEE/TIMM FAIR      46  27  46 NE3       30.10R
RACINE         CLOUDY    45  34  65 N7        30.10R
6HR MIN TEMP:  43; 6HR MAX TEMP:  46;

BURLINGTON     FAIR      47  33  59 CALM      30.08S
6HR MIN TEMP:  44; 6HR MAX TEMP:  47;

KENOSHA        PTSUNNY   48  32  53 NW3       30.07S
6HR MIN TEMP:  45; 6HR MAX TEMP:  49;

FOND DU LAC    FAIR      35  31  85 NW3       30.10R
6HR MIN TEMP:  35; 6HR MAX TEMP:  43;

SHEBOYGAN      FAIR      42  35  76 CALM      30.09R
6HR MIN TEMP:  41; 6HR MAX TEMP:  46;

WEST BEND      FAIR      45  30  57 CALM      30.09R
JUNEAU         FAIR      42  31  66 CALM      30.10S
6HR MIN TEMP:  40; 6HR MAX TEMP:  46;

$$

LSZ147-162-241300-
LAKE SUPERIOR

STATION/POSITION TIME  TEMP    WIND        PRES    WAVE
                       AIR SEA DIR/SP/G            HT/PER
                 (UTC) (F)     (DEG/KT/KT) (MB)    (FT/S)
DEVILS ISLAND    1200   41      60/ 14/ 15 1023.0R
SAXON HARBOR     1130   31     240/  2/  3 1020.7R
$$

LMZ867-665-643>646-241300-
LAKE MICHIGAN

STATION/POSITION TIME  TEMP    WIND        PRES    WAVE
                       AIR SEA DIR/SP/G            HT/PER
                 (UTC) (F)     (DEG/KT/KT) (MB)    (FT/S)
NORTHPORT PIER   1140



USA.gov is the U.S. government's official web portal to all federal, state and local government web resources and services.